sim
Sign-in with your pilot id or email,
or register
Callsign
Passwort

Schedule Details

Flight Number: RYR9822 (2)
Departure: Rome Ciampino Airport (LIRA) at 16:50
Arrival: Bratislava M. R. Stefanik Airport (LZIB) at 18:30
Route: Ryanair Passenger Schedule. Enter filed route here before submitting Pirep.

Weather Information
Getting current METAR information for LIRA 280420Z 04004KT CAVOK 13/06 Q1025
Getting current METAR information for LZIB 280400Z 29006KT CAVOK 13/06 Q1025 NOSIG

Schedule Frequency

Route Map